Weather reports worldwide

Advertisment
Shobdon, United Kingdom (3520): temperature & dewpoint: 11.10.2017 15:00:00 - 17.10.2017 15:00:00 (BST)Shobdon, United Kingdom (3520): temperature -20cm & temperature -100cm: 11.10.2017 15:00:00 - 17.10.2017 15:00:00 (BST)Shobdon, United Kingdom (3520): wind speed & gusts: 11.10.2017 15:00:00 - 17.10.2017 15:00:00 (BST)Shobdon, United Kingdom (3520): wind direction: 11.10.2017 15:00:00 - 17.10.2017 15:00:00 (BST)Shobdon, United Kingdom (3520): reduced air pressure: 11.10.2017 15:00:00 - 17.10.2017 15:00:00 (BST)Shobdon, United Kingdom (3520): visibility: 11.10.2017 15:00:00 - 17.10.2017 15:00:00 (BST)Shobdon, United Kingdom (3520): sunshine duration: 11.10.2017 15:00:00 - 17.10.2017 15:00:00 (BST)Shobdon, United Kingdom (3520): precipitation: 11.10.2017 15:00:00 - 17.10.2017 15:00:00 (BST)
Date & Time tt [°C] td [°C] tt -20cm [°C] tt -100cm [°C] ff [km/h] ff [kn] fx [km/h] fx [kn] dd ppp [hPa] vv [km] sd [min] rr [mm]
17.10.2017 15:00:00 14,8 6,5 - - 13 7 - - W 1017,8 25 60 0,0
17.10.2017 14:00:00 14,7 5,9 - - 16 9 - - W 1018,2 25 60 0,0
17.10.2017 13:00:00 14,8 6,2 - - 26 14 - - WSW 1018,4 27 60 0,0
17.10.2017 12:00:00 14,2 6,8 - - 21 11 - - W 1018,5 24 60 0,0
17.10.2017 11:00:00 13,4 7,5 - - 26 14 - - WSW 1018,6 20 60 0,0
17.10.2017 10:00:00 12,4 7,9 14,2 14,2 21 11 - - W 1018,5 20 30 0,0
17.10.2017 09:00:00 10,9 7,5 - - 13 7 - - W 1017,9 19 24 0,0
17.10.2017 08:00:00 9,7 6,8 - - 9 5 - - W 1017,4 18 0 0,0
17.10.2017 07:00:00 10,6 6,8 - - 22 12 - - WSW 1016,5 19 0 0,0
17.10.2017 06:00:00 10,9 6,7 - - 24 13 50 27 W 1016,0 19 0 0,0
17.10.2017 05:00:00 11,8 6,9 - - 37 20 59 32 WSW 1015,3 18 0 0,0
17.10.2017 04:00:00 12,2 7,2 - - 42 23 65 35 WSW 1014,7 18 0 0,0
17.10.2017 03:00:00 12,4 7,1 - - 42 23 61 33 WSW 1014,8 17 0 0,0
17.10.2017 02:00:00 12,9 7,3 - - 35 19 52 28 WSW 1015,1 16 0 0,0
17.10.2017 01:00:00 12,8 7,3 - - 28 15 52 28 SW 1015,0 16 - 0,0
17.10.2017 00:00:00 13,1 7,1 - - 29 16 65 35 SW 1014,3 16 0 0,0
16.10.2017 23:00:00 13,1 7,3 - - 34 18 59 32 SW 1013,5 16 0 0,0
16.10.2017 22:00:00 13,4 7,6 - - 35 19 59 32 SW 1012,6 16 0 0,0
16.10.2017 21:00:00 13,9 7,7 - - 37 20 59 32 SW 1012,0 16 0 0,0
16.10.2017 20:00:00 13,9 7,8 - - 31 17 76 41 SW 1011,7 17 0 0,0
16.10.2017 19:00:00 14,4 7,3 - - 39 21 70 38 SW 1010,6 14 0 -
16.10.2017 18:00:00 15,3 7,4 - - 41 22 68 37 SW 1010,2 11 0 -
16.10.2017 17:00:00 16,2 7,8 - - 39 21 72 39 SW 1009,1 15 24 0,0
16.10.2017 16:00:00 17,8 7,8 - - 37 20 68 37 SW 1008,8 20 60 0,0
16.10.2017 15:00:00 18,9 8,3 - - 37 20 59 32 SSW 1008,7 20 60 0,0
16.10.2017 14:00:00 19,5 8,8 - - 41 22 68 37 SW 1008,8 19 60 0,0
16.10.2017 13:00:00 18,8 14,6 - - 24 13 - - S 1008,9 12 6 0,0
16.10.2017 12:00:00 18,4 15,1 - - 18 10 - - SSW 1009,1 12 0 0,0
16.10.2017 11:00:00 15,9 15,2 - - 4 2 - - NNW 1009,5 9 0 0,0
16.10.2017 10:00:00 14,9 14,6 14,7 14,2 4 2 - - SSE 1010,1 6 0 0,0
16.10.2017 09:00:00 14,1 13,9 - - 9 5 - - E 1010,5 2,2 0 0,0
16.10.2017 08:00:00 14,0 13,6 - - 4 2 - - E 1010,8 2,4 0 0,0
16.10.2017 07:00:00 14,6 14,5 - - 13 7 - - ENE 1011,3 3,5 0 0,0
16.10.2017 06:00:00 14,1 13,9 - - 9 5 - - ENE 1013,1 3,2 0 0,0
16.10.2017 05:00:00 14,0 13,7 - - 8 4 - - SE 1014,3 3,5 0 0,0
16.10.2017 04:00:00 13,7 13,3 - - 5 3 - - E 1014,0 3,3 0 0,0
16.10.2017 03:00:00 13,3 12,9 - - 4 2 - - E 1014,5 4,0 0 0,0
16.10.2017 02:00:00 13,3 12,9 - - 2 1 - - NNE 1014,4 3,9 0 0,0
16.10.2017 01:00:00 13,0 12,3 - - 5 3 - - NE 1014,5 5 - 0,0
16.10.2017 00:00:00 14,0 12,6 - - 5 3 - - E 1014,7 7 0 0,0
15.10.2017 23:00:00 14,4 12,7 - - 8 4 - - SE 1015,1 8 0 0,0
15.10.2017 22:00:00 14,2 12,7 - - 5 3 - - SSE 1015,2 8 0 0,0
15.10.2017 21:00:00 14,3 12,9 - - 5 3 - - S 1015,3 9 0 0,0
15.10.2017 20:00:00 10,9 10,0 - - 2 1 - - ESE 1015,5 7 0 0,0
15.10.2017 19:00:00 12,2 10,0 - - 2 1 - - S 1015,3 10 0 0,0
15.10.2017 18:00:00 15,0 11,9 - - 2 1 - - S 1015,1 10 12 0,0
15.10.2017 17:00:00 16,4 11,7 - - 11 6 - - S 1014,9 12 36 0,0
15.10.2017 16:00:00 17,4 11,8 - - 15 8 - - SSW 1014,9 15 36 0,0
15.10.2017 15:00:00 18,7 12,7 - - 13 7 - - WSW 1015,3 13 60 0,0
15.10.2017 14:00:00 17,0 12,2 - - 18 10 - - WSW 1015,6 12 48 0,0
15.10.2017 13:00:00 17,5 12,1 - - 16 9 - - W 1015,8 12 18 0,0
15.10.2017 12:00:00 16,6 12,8 - - 15 8 - - WSW 1015,8 13 0 0,0
15.10.2017 11:00:00 16,0 12,6 - - 15 8 - - WSW 1015,5 15 0 0,0
15.10.2017 10:00:00 15,4 13,8 14,5 14,0 5 3 - - S 1015,8 8 6 0,0
15.10.2017 09:00:00 14,6 14,2 - - 4 2 - - ESE 1015,9 5 0 0,0
15.10.2017 08:00:00 14,3 13,5 - - 2 1 - - SSE 1015,9 5 0 0,0
15.10.2017 07:00:00 14,1 13,6 - - 11 6 - - WSW 1015,9 5 0 0,0
15.10.2017 06:00:00 13,6 13,3 - - 5 3 - - SSW 1016,1 6 0 0,0
15.10.2017 05:00:00 13,2 12,6 - - 9 5 - - S 1016,5 7 0 0,0
15.10.2017 04:00:00 14,0 12,9 - - 4 2 - - SSW 1017,3 8 0 0,0
15.10.2017 03:00:00 13,8 13,1 - - 8 4 - - SW 1018,0 10 0 0,0
15.10.2017 02:00:00 13,8 12,3 - - 9 5 - - S 1018,7 13 0 0,0
15.10.2017 01:00:00 14,2 12,3 - - 8 4 - - SW 1019,4 17 - 0,0
15.10.2017 00:00:00 14,6 12,7 - - 5 3 - - SSE 1019,7 20 0 0,0
14.10.2017 23:00:00 14,0 12,9 - - 8 4 - - ESE 1020,1 17 0 0,0
14.10.2017 22:00:00 13,9 13,6 - - 8 4 - - SW 1020,7 12 0 0,0
14.10.2017 21:00:00 13,6 11,8 - - 5 3 - - SW 1021,3 18 0 0,0
14.10.2017 20:00:00 15,6 12,3 - - 8 4 - - SSW 1021,6 20 0 0,0
14.10.2017 19:00:00 16,4 12,9 - - 9 5 - - SW 1021,7 20 0 0,0
14.10.2017 18:00:00 17,1 13,4 - - 9 5 - - SW 1021,5 20 0 0,0
14.10.2017 17:00:00 17,6 13,2 - - 16 9 - - WSW 1021,7 23 36 0,0
14.10.2017 16:00:00 19,2 13,8 - - 22 12 - - SW 1022,2 21 30 0,0
14.10.2017 15:00:00 18,5 14,1 - - 24 13 - - WSW 1022,6 23 0 0,0
14.10.2017 14:00:00 18,2 14,2 - - 15 8 - - WSW 1022,8 23 0 0,0
14.10.2017 13:00:00 18,5 14,5 - - 22 12 - - WSW 1022,7 22 18 0,0
14.10.2017 12:00:00 18,0 14,3 - - 18 10 - - WSW 1022,7 24 0 0,0
14.10.2017 11:00:00 17,6 14,5 - - 28 15 - - WSW 1022,5 23 18 0,0
14.10.2017 10:00:00 16,9 14,7 14,2 14,0 21 11 - - WSW 1022,2 25 12 0,0
14.10.2017 09:00:00 16,3 15,2 - - 13 7 - - SW 1021,8 21 0 0,0
14.10.2017 08:00:00 16,5 14,7 - - 15 8 - - SW 1021,3 23 0 0,0
14.10.2017 07:00:00 16,7 14,2 - - 16 9 - - SW 1020,9 27 0 0,0
14.10.2017 06:00:00 16,5 14,2 - - 15 8 - - WSW 1021,1 25 0 0,0
14.10.2017 05:00:00 16,7 13,9 - - 13 7 - - SW 1020,9 24 0 0,0
14.10.2017 04:00:00 16,4 14,0 - - 16 9 - - WSW 1020,7 23 0 0,0
14.10.2017 03:00:00 16,4 14,5 - - 22 12 - - SW 1021,1 21 0 0,0
14.10.2017 02:00:00 16,6 14,3 - - 18 10 - - WSW 1021,0 24 0 0,0
14.10.2017 01:00:00 16,6 14,4 - - 18 10 - - WSW 1021,2 22 - 0,0
14.10.2017 00:00:00 16,8 14,5 - - 21 11 - - WSW 1020,7 24 0 0,0
13.10.2017 23:00:00 16,8 14,9 - - 24 13 - - W 1020,5 25 0 0,0
13.10.2017 22:00:00 16,8 15,0 - - 18 10 - - WSW 1020,3 26 0 0,0
13.10.2017 21:00:00 17,0 15,0 - - 16 9 - - WSW 1020,1 26 0 0,0
13.10.2017 20:00:00 17,1 15,1 - - 26 14 - - WSW 1020,0 24 0 0,0
13.10.2017 19:00:00 17,2 15,6 - - 24 13 - - SW 1019,7 19 0 0,0
13.10.2017 18:00:00 17,6 15,4 - - 26 14 46 25 WSW 1019,1 27 0 0,0
13.10.2017 17:00:00 18,2 15,3 - - 31 17 46 25 WSW 1019,0 27 0 0,0
13.10.2017 16:00:00 17,8 15,5 - - 21 11 - - SW 1018,9 24 0 0,0
13.10.2017 15:00:00 17,3 15,4 - - 28 15 50 27 SW 1019,0 21 0 0,0
13.10.2017 14:00:00 17,6 15,5 - - 31 17 55 30 WSW 1018,9 22 0 0,0
13.10.2017 13:00:00 17,8 15,2 - - 37 20 55 30 SW 1018,7 26 0 0,2
13.10.2017 12:00:00 17,6 15,4 - - 26 14 48 26 SW 1018,8 18 0 0,2
13.10.2017 11:00:00 18,3 14,7 - - 31 17 50 27 SW 1018,4 25 18 0,0
13.10.2017 10:00:00 17,5 14,9 13,7 14,0 31 17 46 25 WSW 1018,1 26 0 0,0
13.10.2017 09:00:00 17,5 14,9 - - 24 13 46 25 WSW 1017,8 28 0 0,0
13.10.2017 08:00:00 16,7 14,4 - - 24 13 - - WSW 1017,3 26 0 0,0
13.10.2017 07:00:00 16,8 14,6 - - 21 11 - - WSW 1017,2 30 0 0,0
13.10.2017 06:00:00 15,8 14,1 - - 11 6 - - SSW 1017,3 21 0 0,0
13.10.2017 05:00:00 14,9 13,5 - - 9 5 - - S 1017,3 17 0 0,0
13.10.2017 04:00:00 14,3 12,8 - - 8 4 - - ESE 1017,7 18 0 0,0
13.10.2017 03:00:00 14,2 12,6 - - 8 4 - - S 1018,1 17 0 0,0
13.10.2017 02:00:00 14,2 12,4 - - 5 3 - - SW 1018,1 17 0 0,0
13.10.2017 01:00:00 14,0 12,1 - - 8 4 - - S 1018,2 19 - 0,0
13.10.2017 00:00:00 13,0 10,7 - - 4 2 - - WSW 1018,5 19 0 0,0
12.10.2017 23:00:00 12,9 9,9 - - 5 3 - - WSW 1019,0 20 0 0,0
12.10.2017 22:00:00 11,5 9,0 - - 5 3 - - SE 1019,4 20 0 0,0
12.10.2017 21:00:00 11,1 9,0 - - 5 3 - - SSW 1019,4 19 0 0,0
12.10.2017 20:00:00 8,5 7,0 - - 5 3 - - WSW 1019,6 20 0 0,0
12.10.2017 19:00:00 11,2 7,6 - - 5 3 - - W 1019,6 21 6 0,0
12.10.2017 18:00:00 13,9 7,7 - - 16 9 - - SW 1019,2 22 18 0,0
12.10.2017 17:00:00 14,5 8,6 - - 24 13 - - WSW 1019,2 26 24 0,0
12.10.2017 16:00:00 16,4 9,1 - - 22 12 - - W 1019,2 28 36 0,0
12.10.2017 15:00:00 15,2 9,6 - - 22 12 - - WSW 1019,4 27 6 0,0
12.10.2017 14:00:00 15,1 9,3 - - 22 12 - - WSW 1019,5 28 24 0,0
12.10.2017 13:00:00 15,4 9,3 - - 22 12 - - W 1019,9 27 42 0,0
12.10.2017 12:00:00 14,7 9,1 - - 21 11 - - WSW 1019,8 26 54 0,0
12.10.2017 11:00:00 13,3 9,6 - - 16 9 - - SW 1019,8 22 60 0,0
12.10.2017 10:00:00 11,9 9,8 13,7 14,2 13 7 - - WSW 1019,4 25 54 0,0
12.10.2017 09:00:00 8,9 8,5 - - 4 2 - - E 1018,8 21 0 0,0
12.10.2017 08:00:00 6,0 5,7 - - 4 2 - - S 1018,2 19 0 0,0
12.10.2017 07:00:00 7,2 6,7 - - 4 2 - - N 1017,2 18 0 0,0
12.10.2017 06:00:00 8,1 7,3 - - 2 1 - - ENE 1016,3 21 0 0,0
12.10.2017 05:00:00 8,9 7,4 - - 11 6 - - W 1015,6 23 0 0,0
12.10.2017 04:00:00 9,4 7,2 - - 15 8 - - WSW 1015,1 24 0 0,0
12.10.2017 03:00:00 10,0 7,6 - - 13 7 - - SW 1015,0 26 0 0,0
12.10.2017 02:00:00 10,4 8,2 - - 9 5 - - SSW 1014,5 24 0 0,0
12.10.2017 01:00:00 10,5 8,0 - - 15 8 - - SW 1013,7 24 - 0,0
12.10.2017 00:00:00 7,4 6,0 - - 2 1 - - SW 1012,9 20 0 0,0
11.10.2017 23:00:00 10,0 8,2 - - 9 5 - - W 1012,3 22 0 0,0
11.10.2017 22:00:00 11,5 9,0 - - 9 5 - - W 1010,9 21 0 0,0
11.10.2017 21:00:00 12,3 7,8 - - 18 10 - - W 1010,0 23 0 0,0
11.10.2017 20:00:00 12,9 8,9 - - 16 9 - - W 1008,8 20 0 0,0
11.10.2017 19:00:00 13,1 9,1 - - 21 11 - - W 1007,3 22 6 0,0
11.10.2017 18:00:00 14,3 9,6 - - 22 12 - - WSW 1005,7 30 48 0,0
11.10.2017 17:00:00 14,8 13,8 - - 18 10 - - SW 1004,6 20 0 0,0
11.10.2017 16:00:00 14,6 13,6 - - 22 12 - - SW 1004,8 19 0 0,0
11.10.2017 15:00:00 15,2 13,0 - - 24 13 46 25 WSW 1005,1 26 0 0,0

tt = temperature
td = dewpoint
tt -20cm = temperature -20cm
tt -100cm = temperature -100cm
ff = wind speed
fx = gusts
dd = wind direction
ppp = reduced air pressure
vv = visibility
sd = sunshine duration
rr = precipitation

Next stations